[[{"header":{"parameterUnit":"m.s-1","parameterCategory":2,"la1":30.2991,"la2":30.254,"lo1":-89.0895,"lo2":-89.0444,"dy":0.0017,"dx":0.0017,"nx":28,"ny":28,"refTime":"2025-04-16T03:00:00:Z","depth":"0","parameterNumber":2,"parameterNumberName":"U-component_of_CURRENTS"},"data":[0,0,0,0,0,0,0,0,0,0,0,0,0,0,0,0,0,0,0,0,0,0,0,0,0,0,0,0,0,0,0,0,0,0,0,0,0,0,0,0,0,0,0,0,0,0,0,0,0,0,0,0,0,0,0,0,0,0,0.3455,0.3456,0,0.3558,0.3559,0.356,0.3581,0.358,0.358,0.3579,0.3594,0.3595,0.3596,0,0,0,0,0,0,0,0,0,0,0,0,0,0.3327,0.3329,0.3455,0.3456,0.3457,0.3558,0.3559,0.356,0.3581,0.358,0.3579,0.3579,0.3594,0.3595,0.3596,0,0,0,0,0,0,0,0,0,0,0,0,0,0.34,0.333,0.3454,0.3481,0.3485,0.3557,0.3559,0.356,0.3581,0.358,0.3579,0.3578,0.3594,0.3595,0.3597,0.3625,0,0,0.3601,0.3602,0,0,0,0,0,0,0,0,0.3396,0.3404,0.3476,0.3479,0.3484,0.3557,0.352,0.3578,0.3581,0.3543,0.3579,0.3578,0.3575,0.3578,0.3599,0.3626,0.3627,0.3601,0.3602,0.3603,0.3603,0,0,0,0,0,0,0,0.3391,0.34,0.3494,0.3477,0.3482,0.3506,0.3514,0.3531,0.356,0.3546,0.3548,0.3563,0.3577,0.3598,0.3599,0.3627,0.3601,0.3603,0.3604,0.3604,0.3711,0.3713,0,0,0,0,0,0,0.338,0.3396,0.3491,0.3497,0.3438,0.3509,0.3518,0.3533,0.3562,0.3567,0.3563,0.3563,0.3595,0.3597,0.36,0.3659,0.3603,0.3604,0.3605,0.3709,0.3711,0.3713,0,0,0,0,0,0,0.3377,0.3387,0.3486,0.345,0.3464,0.3512,0.3528,0.3536,0.3561,0.3577,0.3579,0.3582,0.3595,0.3598,0.3627,0.3658,0.3605,0.3606,0.3707,0.371,0.3712,0.376,0,0,0,0,0,0,0.3373,0.3386,0.3393,0.3449,0.3466,0.3532,0.353,0.3538,0.3572,0.3573,0.3593,0.3594,0.3594,0.3625,0.3628,0.3659,0.3608,0.3704,0.3708,0.3711,0.3756,0.3765,0.3772,0,0,0,0,0,0.3368,0.3376,0.3393,0.3404,0.3474,0.3533,0.3544,0.3574,0.3574,0.3592,0.3608,0.3593,0.365,0.3627,0.3631,0.3663,0.3702,0.3707,0.3711,0.3753,0.3763,0.3771,0,0,0,0,0,0,0.332,0.3381,0.34,0.3425,0.3479,0.3537,0.3555,0.358,0.3611,0.3607,0.3615,0.3618,0.3659,0.3657,0.3631,0.3707,0.3675,0.3681,0.3706,0.3716,0.3723,0.3726,0.3609,0,0,0,0,0,0.3316,0.3336,0.3405,0.3424,0.3452,0.3507,0.3535,0.3561,0.3597,0.361,0.3628,0.3649,0.3682,0.3692,0.3716,0.3752,0.3774,0.3778,0.3785,0.3792,0.3799,0.387,0.3885,0.3727,0.3727,0.3727,0,0,0.3296,0.3337,0.3344,0.3415,0.3456,0.3502,0.3521,0.3566,0.3606,0.3606,0.3651,0.3676,0.37,0.3746,0.3764,0.3744,0.385,0.3797,0.3802,0.3806,0.3877,0.3892,0.3906,0.373,0.373,0.3729,0,0,0.3277,0.3313,0.333,0.3381,0.3453,0.3496,0.3511,0.3581,0.3614,0.3669,0.3684,0.373,0.3768,0.3803,0.3822,0.3887,0.3891,0.3892,0.3928,0.3998,0.4012,0.4024,0.4076,0.4092,0.3892,0.3892,0.3892,0,0.325,0.3292,0.3344,0.3387,0.3429,0.3493,0.3533,0.3583,0.3652,0.3689,0.3684,0.3788,0.3802,0.3879,0.3902,0.3905,0.3937,0.3888,0.4008,0.402,0.4032,0.4082,0.41,0.3895,0.3894,0.3894,0.3894,0,0.3256,0.3296,0.3313,0.3388,0.344,0.3484,0.3568,0.3621,0.3667,0.3719,0.381,0.3853,0.3914,0.3933,0.3935,0.4029,0.4024,0.4012,0.3982,0.4051,0.4099,0.4117,0.3899,0.3898,0.3897,0.3896,0,0,0.3183,0.3292,0.3299,0.3341,0.3448,0.349,0.357,0.3666,0.3723,0.3798,0.3881,0.3955,0.3988,0.4014,0.4039,0.4097,0.4205,0.4088,0.409,0.4134,0.4356,0.4336,0.4353,0.4215,0.4218,0.4221,0.4359,0,0.3174,0.3244,0.3306,0.3373,0.3425,0.3515,0.3583,0.3676,0.3763,0.3855,0.3938,0.4017,0.4017,0.4058,0.4122,0.4199,0.4253,0.4169,0.4288,0.4291,0.4261,0.4373,0.4264,0.4376,0.4375,0.4378,0.438,0,0.3173,0.3224,0.3288,0.3391,0.3419,0.3462,0.3595,0.3666,0.3813,0.3883,0.3991,0.4061,0.4186,0.416,0.4332,0.4281,0.4318,0.4362,0.4368,0.4344,0.4304,0.4308,0.4407,0.4285,0.4406,0.4404,0.4402,0,0.3132,0.3214,0.3264,0.3301,0.3423,0.3463,0.3523,0.3666,0.377,0.3906,0.402,0.4136,0.4256,0.4322,0.4443,0.4391,0.4624,0.4558,0.4571,0.4569,0.4496,0.4483,0.4486,0.4655,0.4654,0.4654,0.4653,0,0.3139,0.3189,0.3238,0.3277,0.3347,0.3419,0.3527,0.3615,0.377,0.3921,0.4027,0.4191,0.431,0.4469,0.4494,0.4625,0.4674,0.4609,0.462,0.451,0.4497,0.4401,0.4343,0.4659,0.4658,0.4657,0.4656,0,0.319,0.3195,0.3267,0.3333,0.3348,0.3411,0.3556,0.367,0.378,0.3993,0.4055,0.4291,0.4494,0.4611,0.4757,0.4734,0.4693,0.4826,0.4687,0.4677,0.4516,0.4465,0.4337,0.4201,0.4842,0.4842,0.4843,0,0.3288,0.3307,0.3322,0.3378,0.3426,0.3506,0.3604,0.3684,0.3818,0.4071,0.42,0.4443,0.4631,0.4851,0.487,0.4928,0.4754,0.4812,0.4676,0.4526,0.4478,0.4272,0.4149,0.4602,0.4601,0.4599,0.4598,0,0.3506,0.3453,0.3505,0.3553,0.3622,0.3692,0.3801,0.3867,0.3999,0.4148,0.4348,0.4484,0.474,0.4779,0.4877,0.4879,0.4587,0.4785,0.4676,0.4342,0.4074,0.3941,0.4481,0.4587,0.4588,0.4589,0.459,0.459,0.3705,0.3745,0.3741,0.3774,0.3835,0.385,0.3853,0.3965,0.4064,0.4182,0.4371,0.4486,0.4638,0.4772,0.4745,0.4613,0.4538,0.4451,0.4422,0.4239,0.4038,0.4552,0.4636,0.4637,0.4638,0.4639,0.464,0,0.393,0.3916,0.399,0.3948,0.3965,0.3949,0.3986,0.3935,0.3948,0.4115,0.4212,0.4332,0.4406,0.4457,0.443,0.4263,0.4038,0.4138,0.3821,0.3731,0.4255,0.4175,0.4105,0.4106,0.4106,0.4106,0.4106,0.4106,0.4063,0.4109,0.4041,0.4032,0.4004,0.3917,0.3867,0.3794,0.382,0.3793,0.381,0.3906,0.4095,0.4249,0.4106,0.3997,0.3648,0.353,0.3454,0.3846,0.3871,0.3894,0.3804,0.3658,0.3658,0.2779,0.2773,0.2768]},{"header":{"parameterUnit":"m.s-1","parameterCategory":2,"la1":30.2991,"la2":30.254,"lo1":-89.0895,"lo2":-89.0444,"dy":0.0017,"dx":0.0017,"nx":28,"ny":28,"refTime":"2025-04-16T03:00:00:Z","depth":"0","parameterNumber":3,"parameterNumberName":"V-component_of_CURRENTS"},"data":[0,0,0,0,0,0,0,0,0,0,0,0,0,0,0,0,0,0,0,0,0,0,0,0,0,0,0,0,0,0,0,0,0,0,0,0,0,0,0,0,0,0,0,0,0,0,0,0,0,0,0,0,0,0,0,0,0,0,0.0183,0.0182,0,0.0098,0.0097,0.0096,0.0023,0.0022,0.0021,0.0021,-0.0101,-0.0103,-0.0106,0,0,0,0,0,0,0,0,0,0,0,0,0,0.0201,0.0201,0.0183,0.0182,0.0181,0.0099,0.0097,0.0096,0.0023,0.0022,0.0021,0.0021,-0.01,-0.0103,-0.0106,0,0,0,0,0,0,0,0,0,0,0,0,0,0.016,0.0202,0.0183,0.0137,0.0132,0.0099,0.0097,0.0095,0.0023,0.0022,0.0021,0.002,-0.0099,-0.0103,-0.0107,-0.0115,0,0,-0.0119,-0.0121,0,0,0,0,0,0,0,0,0.0163,0.0159,0.0145,0.014,0.0135,0.0073,0.0059,0.0024,0.0023,0.0061,0.0021,0.002,-0.0044,-0.0052,-0.007,-0.0121,-0.0126,-0.012,-0.0122,-0.0124,-0.0125,0,0,0,0,0,0,0,0.0166,0.0162,0.0146,0.0144,0.0138,0.0094,0.0087,0.0052,0.0011,0.0058,0.0053,0.0049,-0.0047,-0.0066,-0.0074,-0.0128,-0.012,-0.0123,-0.0126,-0.0127,-0.0189,-0.0188,0,0,0,0,0,0,0.0188,0.0165,0.0149,0.0144,0.015,0.0095,0.0087,0.0091,0.0012,0.0001,0.005,0.0046,-0.0059,-0.0069,-0.0078,-0.0073,-0.0124,-0.0128,-0.013,-0.0189,-0.0188,-0.0187,0,0,0,0,0,0,0.0188,0.0187,0.0152,0.0154,0.0147,0.0096,0.01,0.009,0.0076,0.0007,-0.0006,0.0047,-0.006,-0.0072,-0.0096,-0.0079,-0.013,-0.0133,-0.019,-0.0189,-0.0188,-0.0075,0,0,0,0,0,0,0.0189,0.0188,0.0196,0.0156,0.0148,0.0151,0.0101,0.0089,0.0076,0.007,0.0001,-0.0012,-0.0061,-0.009,-0.01,-0.0085,-0.0136,-0.0191,-0.019,-0.0188,-0.008,-0.007,-0.0062,0,0,0,0,0,0.019,0.0218,0.0197,0.0195,0.0162,0.0153,0.0145,0.0102,0.0077,0.0083,0.0035,-0.0009,-0.0088,-0.0092,-0.0105,-0.0091,-0.0192,-0.019,-0.0188,-0.0084,-0.0072,-0.0062,0,0,0,0,0,0,0.0236,0.0211,0.0189,0.0208,0.0187,0.0142,0.0143,0.0114,0.0081,0.0073,0.0004,-0.0011,-0.003,-0.0072,-0.0075,-0.0104,-0.0148,-0.0149,-0.0064,-0.0054,-0.0045,-0.0027,-0.014,0,0,0,0,0,0.025,0.0257,0.0227,0.0241,0.0236,0.019,0.018,0.0154,0.012,0.0104,0.0056,0.0006,-0.0032,-0.005,-0.0093,-0.0103,-0.0144,-0.0103,-0.0094,-0.0086,-0.0081,-0.0133,-0.0129,-0.0181,-0.0181,-0.0181,0,0,0.0269,0.0258,0.026,0.025,0.0227,0.0235,0.0182,0.0179,0.0183,0.0097,0.0088,0.0036,-0.0029,-0.0044,-0.0055,-0.0075,-0.0087,-0.0084,-0.0076,-0.0076,-0.0131,-0.0126,-0.0121,-0.018,-0.018,-0.0181,0,0,0.0318,0.0304,0.0326,0.0318,0.0299,0.0276,0.0283,0.0247,0.0227,0.0217,0.0151,0.0116,0.0064,0.0019,-0.001,0.0025,-0.004,0.0009,0.0072,0.0022,0.0026,0.0029,0.0011,0.0011,0.0017,0.0017,0.0018,0,0.0338,0.0362,0.0332,0.0353,0.0354,0.0303,0.0329,0.0308,0.0268,0.0257,0.0233,0.0148,0.0094,0.0066,0.0075,0.0046,0.0014,0.0039,0.0034,0.0036,0.0037,0.0018,0.0017,0.0023,0.0022,0.0022,0.0021,0,0.04,0.0418,0.0435,0.044,0.0441,0.0456,0.0429,0.0423,0.0394,0.0364,0.0334,0.0261,0.021,0.0188,0.0142,0.0123,0.0099,0.0051,0.0011,0.0049,0.0027,0.0024,0.0031,0.0029,0.0028,0.0026,0,0,0.0438,0.0471,0.0474,0.0495,0.0488,0.0499,0.051,0.0503,0.0516,0.0464,0.0475,0.0393,0.0345,0.0308,0.0241,0.0198,0.0184,0.0137,0.0131,0.0128,0.0096,0.0106,0.0103,0.013,0.013,0.0129,0.0088,0,0.0488,0.0558,0.0552,0.0608,0.064,0.0606,0.0627,0.0613,0.059,0.059,0.0507,0.0487,0.0394,0.0378,0.0318,0.0223,0.0176,0.0201,0.0051,0.0047,0.0057,0.0099,0.0124,0.009,0.0084,0.0084,0.0083,0,0.054,0.0583,0.0656,0.07,0.071,0.0731,0.0752,0.0765,0.0743,0.073,0.0683,0.0618,0.0556,0.0471,0.0322,0.0343,0.0227,0.0144,0.014,0.0104,0.0051,0.0043,0.0084,-0.0159,0.0077,0.0078,0.0078,0,0.0588,0.0648,0.0712,0.0726,0.0771,0.0789,0.0805,0.0801,0.0859,0.0816,0.0876,0.0737,0.0735,0.0552,0.0392,0.0349,0.0242,0.0155,0.0053,0.0053,0.0022,0.0021,-0.0185,0.0033,0.0033,0.0033,0.0033,0,0.0646,0.0699,0.0739,0.0777,0.0867,0.0852,0.0943,0.0936,0.0983,0.1114,0.0957,0.1055,0.0755,0.0669,0.0455,0.0281,0.0286,0.0079,0.0042,0.0066,0.0069,-0.0187,-0.0328,0.0032,0.0032,0.0032,0.0033,0,0.0719,0.0732,0.0822,0.0874,0.0899,0.0966,0.1084,0.1182,0.1178,0.1354,0.1366,0.1305,0.1204,0.0918,0.0653,0.0417,0.0078,0.013,0.0199,0.0171,-0.0181,-0.0314,-0.0533,-0.0631,-0.0007,-0.0007,-0.0007,0,0.0789,0.0833,0.0918,0.1008,0.1044,0.1144,0.1261,0.1284,0.1426,0.1566,0.1702,0.1626,0.1673,0.1276,0.0812,0.042,0.0153,0.0139,0.0036,-0.0181,-0.0359,-0.0448,-0.0521,0.0048,0.0048,0.0048,0.0049,0,0.0943,0.095,0.1037,0.12,0.1325,0.1477,0.1632,0.1769,0.187,0.2026,0.2244,0.2277,0.1922,0.1534,0.0936,0.0639,-0.0022,0.0134,-0.0127,-0.0355,-0.0431,-0.0546,0.0073,0.0052,0.0052,0.0051,0.0051,0.0051,0.1093,0.1179,0.1286,0.1428,0.1595,0.1806,0.1945,0.2161,0.2401,0.2662,0.2676,0.2781,0.2134,0.1345,0.0914,0.0049,0.0042,-0.0237,-0.0382,-0.0451,-0.0553,0.01,0.0054,0.0054,0.0054,0.0053,0.0053,0,0.1286,0.1367,0.1528,0.1703,0.19,0.1933,0.2215,0.2378,0.2691,0.2968,0.3148,0.2875,0.2132,0.1313,0.0149,-0.0395,-0.0601,-0.0708,-0.0865,-0.0919,-0.0371,-0.0376,-0.0473,-0.0472,-0.0472,-0.0472,-0.0472,-0.0471,0.1411,0.1575,0.1607,0.1922,0.2061,0.232,0.2471,0.2736,0.2959,0.3256,0.3311,0.3317,0.2565,0.0637,-0.0648,-0.0925,-0.1317,-0.1378,-0.1571,-0.1249,-0.1217,-0.1187,-0.1228,-0.15,-0.1502,-0.2039,-0.2045,-0.2049]}],[{"header":{"parameterUnit":"m.s-1","parameterCategory":2,"la1":30.2991,"la2":30.254,"lo1":-89.0895,"lo2":-89.0444,"dy":0.0017,"dx":0.0017,"nx":28,"ny":28,"refTime":"2025-04-16T03:00:00:Z","depth":"2","parameterNumber":2,"parameterNumberName":"U-component_of_CURRENTS"},"data":[0,0,0,0,0,0,0,0,0,0,0,0,0,0,0,0,0,0,0,0,0,0,0,0,0,0,0,0,0,0,0,0,0,0,0,0,0,0,0,0,0,0,0,0,0,0,0,0,0,0,0,0,0,0,0,0,0,0,0.2729,0.273,0,0.2785,0.2785,0.2785,0.2793,0.2793,0.2793,0.2793,0.2849,0.285,0.2852,0,0,0,0,0,0,0,0,0,0,0,0,0,0.2598,0.26,0.2729,0.2731,0.2732,0.2785,0.2785,0.2785,0.2793,0.2793,0.2793,0.2793,0.2848,0.285,0.2852,0,0,0,0,0,0,0,0,0,0,0,0,0,0.2649,0.2601,0.2729,0.2746,0.2749,0.2785,0.2785,0.2786,0.2793,0.2793,0.2793,0.2793,0.2848,0.285,0.2852,0.2865,0,0,0.2859,0.286,0,0,0,0,0,0,0,0,0.2646,0.2653,0.2743,0.2745,0.2748,0.2787,0.276,0.2814,0.2793,0.277,0.2793,0.2793,0.2832,0.2836,0.2837,0.2867,0.287,0.2859,0.286,0.2861,0.2862,0,0,0,0,0,0,0,0.2643,0.2651,0.2745,0.2744,0.2748,0.2741,0.2748,0.277,0.2795,0.2772,0.2774,0.279,0.2833,0.2835,0.2839,0.287,0.2859,0.2861,0.2862,0.2863,0.297,0.2971,0,0,0,0,0,0,0.265,0.2648,0.2743,0.2747,0.2703,0.2744,0.2752,0.277,0.2795,0.2801,0.279,0.279,0.2831,0.2836,0.2841,0.2919,0.2861,0.2863,0.2864,0.2968,0.297,0.2972,0,0,0,0,0,0,0.2647,0.2658,0.2741,0.2703,0.2714,0.2747,0.2767,0.2771,0.2793,0.281,0.2814,0.281,0.2832,0.2838,0.2884,0.2919,0.2864,0.2866,0.2967,0.2969,0.2971,0.3036,0,0,0,0,0,0,0.2643,0.2657,0.2669,0.2704,0.2717,0.2775,0.2768,0.2772,0.2804,0.2805,0.2829,0.2833,0.2832,0.2881,0.2887,0.2921,0.2868,0.2965,0.2968,0.297,0.3032,0.3041,0.3048,0,0,0,0,0,0.2638,0.2657,0.267,0.2681,0.2734,0.2777,0.2782,0.2801,0.2806,0.2818,0.2842,0.2833,0.2903,0.2885,0.289,0.2926,0.2963,0.2967,0.297,0.3029,0.3039,0.3048,0,0,0,0,0,0,0.261,0.2662,0.2675,0.271,0.2748,0.278,0.2797,0.2814,0.2841,0.2845,0.2856,0.2863,0.2916,0.2913,0.2892,0.2965,0.293,0.2935,0.2973,0.2983,0.299,0.298,0.287,0,0,0,0,0,0.2611,0.2637,0.2687,0.2716,0.2736,0.277,0.279,0.2807,0.2839,0.2851,0.2876,0.29,0.2931,0.2951,0.2971,0.3014,0.3029,0.304,0.3048,0.3054,0.305,0.3122,0.3137,0.2983,0.2983,0.2983,0,0,0.26,0.2642,0.2651,0.2712,0.2739,0.2769,0.2781,0.2819,0.2848,0.2854,0.2902,0.293,0.2949,0.2997,0.302,0.3002,0.3107,0.3059,0.3064,0.3056,0.3128,0.3143,0.3156,0.2986,0.2985,0.2985,0,0,0.2597,0.2639,0.2655,0.2692,0.2749,0.2777,0.2796,0.2845,0.287,0.2919,0.2938,0.299,0.3027,0.3059,0.3075,0.3138,0.3146,0.3147,0.3181,0.3253,0.3266,0.3278,0.3322,0.3337,0.3151,0.3152,0.3152,0,0.2578,0.2624,0.2666,0.2699,0.2735,0.2785,0.2814,0.2846,0.2907,0.2946,0.2938,0.3036,0.3053,0.313,0.3149,0.3157,0.3191,0.3146,0.3264,0.3276,0.3287,0.3329,0.3345,0.3155,0.3155,0.3154,0.3154,0,0.2588,0.2629,0.2649,0.2707,0.2746,0.2787,0.2844,0.2893,0.2933,0.2974,0.3063,0.3097,0.3164,0.3177,0.3179,0.3275,0.3272,0.3267,0.3241,0.3306,0.3346,0.3362,0.316,0.3159,0.3158,0.3157,0,0,0.2534,0.2631,0.264,0.2675,0.2761,0.2794,0.2859,0.294,0.3002,0.3055,0.3137,0.3194,0.324,0.3261,0.3291,0.3338,0.3446,0.3338,0.334,0.3381,0.3599,0.3548,0.356,0.3474,0.3477,0.3479,0.3598,0,0.2531,0.2594,0.2648,0.2707,0.2746,0.2822,0.2886,0.2965,0.3039,0.3131,0.3192,0.3274,0.3266,0.3318,0.3372,0.3438,0.3489,0.3413,0.3528,0.353,0.3478,0.3577,0.329,0.3368,0.3613,0.3615,0.3617,0,0.2526,0.2577,0.2635,0.2735,0.2759,0.2799,0.2929,0.2991,0.3128,0.3196,0.3296,0.3353,0.3461,0.3429,0.3574,0.3534,0.3571,0.3595,0.3601,0.3537,0.3509,0.3341,0.3386,0.3643,0.3641,0.3639,0.3637,0,0.2485,0.257,0.2624,0.2656,0.2768,0.2813,0.2876,0.301,0.3099,0.3247,0.3337,0.3457,0.3557,0.3613,0.3686,0.365,0.3821,0.3781,0.3762,0.3758,0.3524,0.3495,0.3868,0.3868,0.3868,0.3867,0.3867,0,0.2483,0.2522,0.2607,0.2635,0.2709,0.2788,0.2891,0.2985,0.3141,0.3258,0.3374,0.3491,0.3613,0.3725,0.3738,0.3818,0.3882,0.3786,0.3799,0.3539,0.3511,0.3746,0.373,0.3872,0.3871,0.387,0.3869,0,0.2465,0.251,0.2574,0.2671,0.2694,0.2753,0.2894,0.2985,0.3133,0.3292,0.335,0.3572,0.3716,0.3806,0.3927,0.3913,0.3958,0.3959,0.3637,0.3609,0.3825,0.3812,0.3951,0.395,0.395,0.3949,0.3949,0,0.2499,0.2518,0.259,0.2626,0.2672,0.2757,0.2829,0.297,0.3069,0.3325,0.3401,0.3614,0.3729,0.3904,0.3911,0.3944,0.3989,0.3699,0.3567,0.3843,0.3841,0.3828,0.3815,0.3282,0.3276,0.3272,0.3268,0,0.2542,0.2543,0.2598,0.2629,0.2686,0.278,0.2875,0.2913,0.3091,0.3218,0.3387,0.3492,0.3702,0.3641,0.3728,0.3692,0.3666,0.3606,0.4009,0.331,0.3224,0.3218,0.3225,0.3226,0.323,0.3234,0.3236,0.3237,0.2591,0.2594,0.2595,0.2613,0.2704,0.2737,0.2724,0.2846,0.2926,0.3014,0.3222,0.3284,0.3404,0.3383,0.3312,0.3266,0.3498,0.3337,0.3346,0.3362,0.3268,0.3186,0.3163,0.3166,0.3169,0.3172,0.3175,0,0.253,0.2486,0.2553,0.253,0.2562,0.2643,0.2705,0.2645,0.2628,0.2813,0.2904,0.2751,0.2777,0.2872,0.2752,0.2788,0.2706,0.267,0.2529,0.2575,0.2616,0.2476,0.2165,0.2162,0.2158,0.2155,0,0,0.2481,0.2402,0.2365,0.2309,0.2349,0.23,0.2281,0.2274,0.2344,0.2302,0.2343,0.261,0.2792,0.2428,0.2416,0.2263,0.238,0.2175,0.2996,0.2875,0.291,0.3029,0.2874,0,0,0,0,0]},{"header":{"parameterUnit":"m.s-1","parameterCategory":2,"la1":30.2991,"la2":30.254,"lo1":-89.0895,"lo2":-89.0444,"dy":0.0017,"dx":0.0017,"nx":28,"ny":28,"refTime":"2025-04-16T03:00:00:Z","depth":"2","parameterNumber":3,"parameterNumberName":"V-component_of_CURRENTS"},"data":[0,0,0,0,0,0,0,0,0,0,0,0,0,0,0,0,0,0,0,0,0,0,0,0,0,0,0,0,0,0,0,0,0,0,0,0,0,0,0,0,0,0,0,0,0,0,0,0,0,0,0,0,0,0,0,0,0,0,0.0036,0.0036,0,-0.0041,-0.0042,-0.0043,-0.0101,-0.0101,-0.0101,-0.0102,-0.021,-0.0213,-0.0215,0,0,0,0,0,0,0,0,0,0,0,0,0,0.0068,0.0068,0.0036,0.0036,0.0035,-0.0041,-0.0042,-0.0043,-0.0101,-0.0101,-0.0101,-0.0102,-0.0209,-0.0212,-0.0215,0,0,0,0,0,0,0,0,0,0,0,0,0,0.0028,0.0068,0.0037,-0.0001,-0.0005,-0.004,-0.0042,-0.0043,-0.0101,-0.0101,-0.0102,-0.0102,-0.0208,-0.0212,-0.0216,-0.023,0,0,-0.0228,-0.0229,0,0,0,0,0,0,0,0,0.003,0.0026,0.0005,0.0001,-0.0003,-0.006,-0.007,-0.0107,-0.01,-0.0067,-0.0102,-0.0102,-0.0161,-0.0169,-0.0185,-0.0235,-0.024,-0.0228,-0.023,-0.0232,-0.0233,0,0,0,0,0,0,0,0.0033,0.0029,0.0004,0.0004,-0.0001,-0.0037,-0.0043,-0.0078,-0.0112,-0.007,-0.0073,-0.0079,-0.0164,-0.0181,-0.0188,-0.0241,-0.0228,-0.0231,-0.0234,-0.0235,-0.0309,-0.0308,0,0,0,0,0,0,0.0051,0.0032,0.0006,0.0002,0.0015,-0.0037,-0.0043,-0.0043,-0.0111,-0.0121,-0.0078,-0.0081,-0.0174,-0.0183,-0.0192,-0.0196,-0.0232,-0.0236,-0.0238,-0.0309,-0.0309,-0.0308,0,0,0,0,0,0,0.0052,0.0049,0.0009,0.0016,0.0009,-0.0036,-0.0035,-0.0044,-0.0058,-0.0117,-0.0128,-0.0082,-0.0175,-0.0186,-0.0213,-0.0201,-0.0237,-0.0241,-0.031,-0.0309,-0.0309,-0.0214,0,0,0,0,0,0,0.0053,0.005,0.0056,0.0018,0.0009,0.0002,-0.0035,-0.0045,-0.0059,-0.0064,-0.0124,-0.0135,-0.0176,-0.0207,-0.0217,-0.0207,-0.0244,-0.031,-0.0309,-0.0309,-0.0218,-0.0211,-0.0205,0,0,0,0,0,0.0055,0.0072,0.0057,0.0053,0.0019,0.0003,-0.0004,-0.004,-0.0058,-0.0056,-0.0097,-0.0133,-0.021,-0.0209,-0.0222,-0.0212,-0.031,-0.031,-0.0309,-0.0221,-0.0212,-0.0205,0,0,0,0,0,0,0.009,0.0067,0.0049,0.0058,0.0037,-0.0006,-0.0007,-0.0032,-0.0063,-0.0067,-0.0126,-0.014,-0.0161,-0.0199,-0.0197,-0.0233,-0.0267,-0.0268,-0.0196,-0.0189,-0.0182,-0.0156,-0.0247,0,0,0,0,0,0.0101,0.0106,0.0076,0.0083,0.0077,0.0036,0.0024,0.0003,-0.003,-0.0044,-0.0086,-0.0131,-0.0168,-0.0186,-0.0225,-0.024,-0.0276,-0.0244,-0.0237,-0.0231,-0.0219,-0.0267,-0.0263,-0.0306,-0.0306,-0.0306,0,0,0.0115,0.0104,0.0105,0.009,0.0069,0.0076,0.0027,0.0021,0.0024,-0.0051,-0.0059,-0.0108,-0.0167,-0.0186,-0.0199,-0.0215,-0.0236,-0.023,-0.0224,-0.0216,-0.0266,-0.0261,-0.0258,-0.0305,-0.0305,-0.0305,0,0,0.0154,0.0138,0.0158,0.0148,0.013,0.0108,0.0112,0.0078,0.006,0.0045,-0.0009,-0.0046,-0.01,-0.0138,-0.0166,-0.0145,-0.02,-0.0161,-0.0105,-0.0151,-0.0147,-0.0145,-0.0174,-0.0174,-0.0156,-0.0156,-0.0156,0,0.017,0.0194,0.0161,0.018,0.0183,0.0131,0.0158,0.0133,0.0094,0.0086,0.0057,-0.0024,-0.0076,-0.0101,-0.0097,-0.0128,-0.0159,-0.0128,-0.014,-0.0139,-0.0138,-0.0168,-0.017,-0.0152,-0.0152,-0.0153,-0.0153,0,0.0225,0.0243,0.0257,0.0265,0.0263,0.0277,0.0246,0.0239,0.0209,0.0179,0.0147,0.0071,0.0027,-0.0002,-0.0044,-0.0062,-0.0087,-0.0126,-0.0156,-0.0128,-0.0162,-0.0166,-0.0145,-0.0147,-0.0148,-0.0149,0,0,0.0259,0.0291,0.0294,0.032,0.0312,0.032,0.0329,0.0323,0.0337,0.0275,0.0283,0.0199,0.0153,0.0119,0.0054,0.0007,-0.0016,-0.0048,-0.0053,-0.0066,-0.0105,-0.0133,-0.0141,-0.0059,-0.006,-0.006,-0.0127,0,0.031,0.0379,0.0373,0.0432,0.0466,0.0434,0.0452,0.0437,0.0408,0.04,0.0311,0.0286,0.02,0.0181,0.0123,0.0019,-0.0024,0.0007,-0.0139,-0.0143,-0.0164,-0.0146,-0.0126,-0.0185,-0.0131,-0.0131,-0.0132,0,0.0362,0.0406,0.0481,0.0533,0.0544,0.0565,0.0589,0.0599,0.0566,0.0544,0.0494,0.0425,0.0352,0.0273,0.0118,0.0141,0.0034,-0.0055,-0.0061,-0.0122,-0.0179,-0.0209,-0.0195,-0.0139,-0.0139,-0.0138,-0.0138,0,0.0409,0.0477,0.0546,0.0562,0.0609,0.0631,0.0648,0.0639,0.0674,0.0632,0.0652,0.0537,0.0503,0.0343,0.0159,0.0139,-0.0013,-0.0065,-0.0191,-0.0193,-0.0223,-0.0227,-0.017,-0.017,-0.017,-0.017,-0.0169,0,0.0467,0.0518,0.0575,0.0611,0.0693,0.0697,0.0771,0.0763,0.0789,0.085,0.0731,0.0749,0.0518,0.0402,0.0209,0.0007,0.0024,-0.0171,-0.0213,-0.0189,-0.019,-0.0191,-0.0193,-0.0172,-0.0171,-0.0171,-0.0171,0,0.05,0.0541,0.0623,0.0691,0.0717,0.0771,0.0863,0.0924,0.0928,0.1006,0.1005,0.0918,0.0758,0.052,0.027,0.0096,-0.0115,-0.0193,-0.0141,-0.0176,-0.0276,-0.0272,-0.0335,-0.0337,-0.0338,-0.0339,-0.034,0,0.0522,0.0566,0.0674,0.0732,0.0764,0.0853,0.0927,0.0979,0.1059,0.1115,0.1166,0.1049,0.0972,0.0597,0.0255,-0.0079,-0.0119,-0.0264,-0.0309,-0.0259,-0.0294,-0.0287,-0.0282,-0.0306,-0.0307,-0.0308,-0.0308,0,0.0543,0.058,0.0658,0.0775,0.0865,0.0994,0.1102,0.1191,0.1274,0.1337,0.1391,0.1332,0.1,0.0658,0.021,-0.0018,-0.0216,-0.0284,-0.0247,-0.0267,-0.0238,-0.027,-0.0264,-0.0312,-0.0312,-0.0311,-0.0311,-0.0311,0.055,0.0604,0.0694,0.0817,0.0935,0.109,0.1203,0.1342,0.1474,0.1575,0.1532,0.1463,0.1109,0.0521,0.0139,-0.0251,-0.0244,-0.0382,-0.0378,-0.0375,-0.0359,-0.0334,-0.0422,-0.0422,-0.0422,-0.0422,-0.0423,0,0.0537,0.0604,0.072,0.0872,0.1011,0.1078,0.1292,0.1417,0.1581,0.167,0.1694,0.1352,0.0972,0.0576,-0.0007,-0.0359,-0.0386,-0.0464,-0.0417,-0.0411,-0.0406,-0.039,-0.0462,-0.0463,-0.0464,-0.0465,0,0,0.0522,0.0614,0.0693,0.0894,0.1014,0.121,0.1344,0.1531,0.1656,0.1722,0.1701,0.1593,0.1117,0.0696,0.0207,-0.0118,-0.0178,-0.0186,-0.0121,-0.0002,0.0007,-0.0332,-0.0298,0,0,0,0,0]}],[{"header":{"parameterUnit":"m.s-1","parameterCategory":2,"la1":30.2991,"la2":30.254,"lo1":-89.0895,"lo2":-89.0444,"dy":0.0017,"dx":0.0017,"nx":28,"ny":28,"refTime":"2025-04-16T03:00:00:Z","depth":"4","parameterNumber":2,"parameterNumberName":"U-component_of_CURRENTS"},"data":[0,0,0,0,0,0,0,0,0,0,0,0,0,0,0,0,0,0,0,0,0,0,0,0,0,0,0,0,0,0,0,0,0,0,0,0,0,0,0,0,0,0,0,0,0,0,0,0,0,0,0,0,0,0,0,0,0,0,0.1628,0.1629,0,0.1718,0.1719,0.172,0.1792,0.1793,0.1794,0.1795,0.189,0.1892,0.1893,0,0,0,0,0,0,0,0,0,0,0,0,0,0.1514,0.1515,0.1628,0.1629,0.1631,0.1718,0.1719,0.172,0.1792,0.1793,0.1794,0.1795,0.189,0.1892,0.1894,0,0,0,0,0,0,0,0,0,0,0,0,0,0.1578,0.1516,0.1628,0.1679,0.1684,0.1718,0.1719,0.1721,0.1792,0.1793,0.1795,0.1796,0.1889,0.1891,0.1894,0.1881,0,0,0.1901,0.1903,0,0,0,0,0,0,0,0,0.1574,0.1581,0.167,0.1675,0.1682,0.1748,0.1714,0.1775,0.1791,0.1748,0.1795,0.1797,0.1843,0.185,0.186,0.1886,0.189,0.1902,0.1903,0.1904,0.1905,0,0,0,0,0,0,0,0.1569,0.1578,0.1661,0.1671,0.1678,0.1696,0.1706,0.1726,0.1785,0.1752,0.1758,0.1772,0.1846,0.1858,0.1863,0.1891,0.1902,0.1904,0.1905,0.1906,0.2042,0.2044,0,0,0,0,0,0,0.1562,0.1574,0.1659,0.1664,0.1633,0.1697,0.1709,0.1723,0.1785,0.1797,0.177,0.1775,0.1853,0.186,0.1867,0.1968,0.1904,0.1907,0.1908,0.204,0.2043,0.2045,0,0,0,0,0,0,0.1559,0.1568,0.1655,0.1623,0.1635,0.1698,0.1713,0.1724,0.1772,0.1799,0.1811,0.1812,0.1854,0.1863,0.1926,0.1968,0.1908,0.191,0.2038,0.2041,0.2044,0.2098,0,0,0,0,0,0,0.1555,0.1567,0.1592,0.1622,0.1637,0.1696,0.1713,0.1725,0.1777,0.1785,0.1838,0.1846,0.1856,0.1923,0.1929,0.197,0.1912,0.2035,0.2039,0.2043,0.2094,0.2103,0.211,0,0,0,0,0,0.1551,0.1572,0.1592,0.1604,0.1664,0.1698,0.1707,0.1754,0.1778,0.1802,0.1849,0.1846,0.1952,0.1926,0.1933,0.1976,0.2033,0.2038,0.2043,0.209,0.2101,0.211,0,0,0,0,0,0,0.1533,0.1582,0.1605,0.1641,0.1679,0.1711,0.1745,0.1771,0.1825,0.1848,0.1869,0.1881,0.1955,0.1957,0.1927,0.2029,0.1994,0.2,0.2027,0.2038,0.2046,0.2028,0.1914,0,0,0,0,0,0.154,0.1575,0.1615,0.1648,0.167,0.1713,0.1741,0.1773,0.1816,0.1844,0.1883,0.1929,0.1972,0.1999,0.2035,0.2082,0.2094,0.2117,0.2125,0.2132,0.2124,0.2182,0.2195,0.2061,0.2061,0.2061,0,0,0.1543,0.1575,0.1596,0.1648,0.1684,0.1719,0.1734,0.1787,0.1827,0.1843,0.1923,0.1963,0.1993,0.2058,0.209,0.2068,0.2183,0.2138,0.2144,0.2131,0.2189,0.2202,0.2213,0.2064,0.2063,0.2063,0,0,0.155,0.1596,0.1625,0.1659,0.1721,0.1748,0.177,0.1827,0.1869,0.1936,0.1969,0.203,0.2094,0.2124,0.2145,0.2217,0.2229,0.2243,0.2267,0.2325,0.2336,0.2346,0.2397,0.2411,0.2243,0.2243,0.2243,0,0.1557,0.1593,0.1638,0.1671,0.1707,0.1763,0.1798,0.1843,0.1918,0.1957,0.1973,0.2094,0.2119,0.2191,0.2221,0.2235,0.2272,0.2224,0.2335,0.2345,0.2354,0.2404,0.2418,0.2246,0.2246,0.2246,0.2245,0,0.1572,0.1617,0.1639,0.1702,0.1744,0.1787,0.1849,0.191,0.1969,0.2013,0.2115,0.216,0.223,0.2254,0.2258,0.2343,0.2353,0.2342,0.2304,0.237,0.242,0.2434,0.2251,0.225,0.2249,0.2248,0,0,0.154,0.1632,0.1643,0.1678,0.1768,0.1796,0.1878,0.1955,0.2017,0.2099,0.2177,0.2253,0.2295,0.232,0.235,0.2389,0.2488,0.2396,0.2398,0.2438,0.2631,0.247,0.247,0.251,0.2512,0.2514,0.2646,0,0.1542,0.16,0.1652,0.1717,0.1752,0.1835,0.19,0.1984,0.2068,0.216,0.2228,0.2317,0.2317,0.2372,0.2415,0.2477,0.2526,0.2454,0.2568,0.2571,0.2411,0.248,0.2522,0.2657,0.266,0.2662,0.2664,0,0.153,0.1575,0.1635,0.1729,0.1754,0.1808,0.1929,0.1997,0.2133,0.2202,0.2305,0.2374,0.2472,0.2454,0.2587,0.2551,0.2595,0.2625,0.2631,0.2462,0.2434,0.2574,0.2689,0.2687,0.2685,0.2684,0.2682,0,0.1467,0.1559,0.1608,0.164,0.1755,0.1811,0.1883,0.2016,0.2098,0.2246,0.2337,0.2446,0.2543,0.2605,0.2688,0.2658,0.2819,0.2784,0.2679,0.267,0.2751,0.2738,0.2867,0.2867,0.2867,0.2866,0.2866,0,0.143,0.1468,0.1588,0.1613,0.1684,0.1781,0.1883,0.1973,0.2129,0.2227,0.2364,0.2463,0.2591,0.2703,0.2732,0.2755,0.2869,0.2688,0.269,0.2774,0.2763,0.2762,0.2748,0.2871,0.287,0.2869,0.2868,0,0.1348,0.1424,0.1486,0.1614,0.1657,0.1712,0.1881,0.1952,0.2119,0.2259,0.2322,0.2525,0.2651,0.276,0.2877,0.2814,0.2843,0.2825,0.293,0.2937,0.2643,0.2631,0.27,0.2695,0.2691,0.2688,0.2685,0,0.131,0.1335,0.1473,0.1513,0.1577,0.168,0.1751,0.1923,0.2009,0.2274,0.2328,0.2534,0.2641,0.2694,0.2795,0.2844,0.2812,0.2814,0.2684,0.2629,0.2626,0.262,0.2613,0.2679,0.2678,0.2677,0.2676,0,0.1229,0.1293,0.1351,0.1436,0.1512,0.1585,0.1705,0.1763,0.1964,0.2152,0.2285,0.2375,0.2517,0.2593,0.2666,0.2688,0.2793,0.2772,0.2778,0.2656,0.2604,0.2604,0.2602,0.2662,0.2664,0.2666,0.2666,0,0.117,0.1192,0.1272,0.1338,0.1423,0.145,0.1536,0.1646,0.1756,0.2052,0.209,0.2305,0.2487,0.2517,0.2579,0.2591,0.2536,0.2441,0.2464,0.248,0.2344,0.2242,0.2195,0,0,0,0,0,0.1094,0.1096,0.1158,0.1209,0.1294,0.1332,0.1482,0.158,0.1793,0.1832,0.1958,0.2075,0.2189,0.2305,0.2271,0.2463,0.2529,0.2412,0.2426,0.2586,0.2602,0.246,0,0,0,0,0,0,0.1028,0.1067,0.1106,0.1083,0.1099,0.1157,0.1242,0.139,0.1431,0.167,0.1747,0.1935,0.2075,0.2175,0.2223,0.2256,0.2221,0.255,0.2545,0.2578,0.2592,0.2605,0.2463,0,0,0,0,0]},{"header":{"parameterUnit":"m.s-1","parameterCategory":2,"la1":30.2991,"la2":30.254,"lo1":-89.0895,"lo2":-89.0444,"dy":0.0017,"dx":0.0017,"nx":28,"ny":28,"refTime":"2025-04-16T03:00:00:Z","depth":"4","parameterNumber":3,"parameterNumberName":"V-component_of_CURRENTS"},"data":[0,0,0,0,0,0,0,0,0,0,0,0,0,0,0,0,0,0,0,0,0,0,0,0,0,0,0,0,0,0,0,0,0,0,0,0,0,0,0,0,0,0,0,0,0,0,0,0,0,0,0,0,0,0,0,0,0,0,0.0037,0.0037,0,-0.0014,-0.0014,-0.0015,-0.0054,-0.0054,-0.0054,-0.0055,-0.0137,-0.0138,-0.014,0,0,0,0,0,0,0,0,0,0,0,0,0,0.0063,0.0063,0.0038,0.0037,0.0036,-0.0014,-0.0014,-0.0015,-0.0054,-0.0054,-0.0055,-0.0055,-0.0136,-0.0138,-0.0141,0,0,0,0,0,0,0,0,0,0,0,0,0,0.0035,0.0063,0.0038,0.0012,0.0009,-0.0013,-0.0014,-0.0016,-0.0054,-0.0054,-0.0055,-0.0055,-0.0135,-0.0138,-0.0141,-0.0152,0,0,-0.015,-0.0151,0,0,0,0,0,0,0,0,0.0037,0.0034,0.0016,0.0014,0.0011,-0.0027,-0.0035,-0.0062,-0.0054,-0.0031,-0.0055,-0.0055,-0.0102,-0.0107,-0.0117,-0.0156,-0.0159,-0.015,-0.0152,-0.0153,-0.0154,0,0,0,0,0,0,0,0.0039,0.0036,0.0016,0.0016,0.0012,-0.001,-0.0014,-0.0041,-0.0065,-0.0033,-0.0036,-0.0039,-0.0104,-0.0115,-0.012,-0.016,-0.015,-0.0153,-0.0154,-0.0156,-0.0225,-0.0225,0,0,0,0,0,0,0.005,0.0038,0.0018,0.0015,0.0024,-0.001,-0.0015,-0.0015,-0.0064,-0.0072,-0.0039,-0.0041,-0.0109,-0.0116,-0.0123,-0.0133,-0.0153,-0.0156,-0.0158,-0.0225,-0.0225,-0.0225,0,0,0,0,0,0,0.0051,0.0049,0.002,0.0026,0.0021,-0.001,-0.001,-0.0016,-0.0026,-0.0068,-0.0076,-0.0043,-0.011,-0.0119,-0.0144,-0.0137,-0.0157,-0.016,-0.0225,-0.0225,-0.0225,-0.0158,0,0,0,0,0,0,0.0052,0.0049,0.0053,0.0027,0.0021,0.0012,-0.001,-0.0017,-0.0027,-0.003,-0.0074,-0.0082,-0.0111,-0.0139,-0.0146,-0.0141,-0.0162,-0.0225,-0.0225,-0.0225,-0.016,-0.0156,-0.0152,0,0,0,0,0,0.0053,0.0062,0.0054,0.0051,0.0027,0.0012,0.0007,-0.0017,-0.0027,-0.0028,-0.0058,-0.0081,-0.0146,-0.0141,-0.015,-0.0146,-0.0225,-0.0225,-0.0225,-0.0162,-0.0157,-0.0152,0,0,0,0,0,0,0.0074,0.0058,0.0048,0.0052,0.0036,0.0007,0.0005,-0.0012,-0.0036,-0.0038,-0.008,-0.009,-0.0111,-0.0139,-0.0133,-0.0168,-0.019,-0.0192,-0.0139,-0.0134,-0.0131,-0.0101,-0.0165,0,0,0,0,0,0.0082,0.0085,0.0063,0.0066,0.0061,0.0034,0.0026,0.0011,-0.0013,-0.0024,-0.0055,-0.0089,-0.0119,-0.0134,-0.0165,-0.018,-0.0208,-0.0186,-0.0182,-0.0178,-0.0161,-0.0203,-0.0201,-0.0226,-0.0226,-0.0226,0,0,0.0089,0.0082,0.0083,0.0071,0.0057,0.0063,0.0028,0.0022,0.0026,-0.0029,-0.0035,-0.0076,-0.0121,-0.014,-0.0152,-0.0161,-0.0187,-0.0178,-0.0174,-0.016,-0.0203,-0.02,-0.0198,-0.0226,-0.0226,-0.0226,0,0,0.0115,0.0103,0.0117,0.011,0.0098,0.0083,0.0085,0.006,0.0047,0.0034,-0.0006,-0.0038,-0.0081,-0.011,-0.0131,-0.0124,-0.0166,-0.0141,-0.0094,-0.0134,-0.0132,-0.0131,-0.0166,-0.0168,-0.0137,-0.0137,-0.0137,0,0.0125,0.0144,0.0118,0.0133,0.0138,0.0099,0.0121,0.0102,0.0071,0.0067,0.0042,-0.0022,-0.0064,-0.0084,-0.0085,-0.0113,-0.0143,-0.0105,-0.0127,-0.0126,-0.0126,-0.0162,-0.0165,-0.0133,-0.0134,-0.0134,-0.0134,0,0.0164,0.018,0.0189,0.0199,0.0198,0.0209,0.0187,0.018,0.0159,0.0137,0.0109,0.0047,0.0013,-0.0014,-0.0047,-0.0065,-0.0089,-0.0118,-0.0133,-0.0119,-0.0159,-0.0163,-0.0129,-0.013,-0.0131,-0.0132,0,0,0.0185,0.0214,0.0217,0.0242,0.0238,0.0245,0.0253,0.0252,0.0264,0.0213,0.022,0.0151,0.0113,0.0087,0.0032,-0.0008,-0.0039,-0.0054,-0.0058,-0.0077,-0.0126,-0.0142,-0.0149,-0.0073,-0.0074,-0.0074,-0.0155,0,0.0225,0.028,0.0279,0.033,0.0359,0.0338,0.0356,0.0345,0.0321,0.0312,0.0241,0.0219,0.0152,0.0135,0.0085,-0.001,-0.0047,-0.0014,-0.0146,-0.015,-0.0157,-0.0154,-0.0075,-0.0159,-0.016,-0.0161,-0.0161,0,0.0264,0.0301,0.0364,0.0415,0.0425,0.0446,0.0472,0.0481,0.0453,0.0431,0.039,0.0332,0.0267,0.0208,0.0066,0.0089,-0.0002,-0.008,-0.0086,-0.0123,-0.0174,-0.0179,-0.017,-0.0169,-0.0169,-0.0168,-0.0168,0,0.0298,0.0359,0.0419,0.0433,0.0478,0.0504,0.0524,0.0518,0.0537,0.0505,0.0506,0.0417,0.037,0.0248,0.0083,0.0076,-0.0077,-0.011,-0.0207,-0.021,-0.0199,-0.02,-0.0194,-0.0194,-0.0194,-0.0194,-0.0193,0,0.034,0.0386,0.0443,0.0472,0.0544,0.0558,0.0619,0.0615,0.0628,0.0648,0.0572,0.0551,0.0377,0.0265,0.0117,-0.006,-0.0054,-0.0191,-0.0229,-0.0171,-0.0168,-0.0203,-0.0203,-0.0197,-0.0196,-0.0195,-0.0195,0,0.0353,0.0397,0.0464,0.0531,0.056,0.0604,0.0681,0.0719,0.0724,0.0746,0.0743,0.0648,0.0492,0.0315,0.0104,-0.0014,-0.0182,-0.0244,-0.0158,-0.0193,-0.0294,-0.029,-0.0351,-0.0352,-0.0353,-0.0354,-0.0355,0,0.0357,0.0396,0.0493,0.0538,0.0569,0.0648,0.0703,0.0751,0.0789,0.0793,0.0798,0.0682,0.0588,0.0294,0.0093,-0.0173,-0.0218,-0.0291,-0.0297,-0.0277,-0.0309,-0.0303,-0.0297,-0.0356,-0.0357,-0.0357,-0.0357,0,0.0351,0.0389,0.0445,0.0548,0.0619,0.0706,0.0784,0.0827,0.0875,0.0889,0.0842,0.07,0.0524,0.0289,0.0085,-0.0112,-0.0236,-0.0303,-0.0302,-0.0308,-0.0284,-0.0314,-0.0307,-0.0361,-0.036,-0.036,-0.036,0,0.0339,0.0372,0.0456,0.0552,0.0638,0.0727,0.0779,0.0833,0.0884,0.0899,0.0872,0.0698,0.0602,0.0319,0.0124,-0.0064,-0.0118,-0.0173,-0.018,-0.0178,-0.0112,-0.0055,-0.0086,0,0,0,0,0,0.0338,0.039,0.0456,0.0571,0.0653,0.0723,0.0816,0.0865,0.0924,0.0899,0.0896,0.0734,0.0456,0.0336,0.0144,0.0078,-0.0167,-0.0154,-0.0238,-0.038,-0.0376,-0.033,0,0,0,0,0,0,0.0338,0.0407,0.0453,0.0566,0.0648,0.0755,0.0821,0.0865,0.0859,0.0881,0.0735,0.0691,0.0415,0.0568,0.0143,0.0086,0.0008,-0.0275,-0.0279,-0.0383,-0.0379,-0.0376,-0.0327,0,0,0,0,0]}]]